[Date Prev][Date Next][Thread Prev][Thread Next] - [Date Index][Thread Index][Author Index]

2 Line ISS Keps 1-21



ISS
1 25544U 98067A   04021.16728009  .00023733  00000-0  23074-3 0   493
2 25544  51.6300 359.0834 0008121  72.2502 105.6422 15.66135518295095


----
Via the sarex mailing list at AMSAT.ORG courtesy of AMSAT-NA.
To unsubscribe, send "unsubscribe sarex" to Majordomo@amsat.org



AMSAT Top AMSAT Home